Wind_Speed
32 31 31 34 36 39 39 36 28 17 16 13 26 35 49 60 70 80 85 89 95 103 105 116 126 128 128 129 130 126 123 122 121 121 121 119 118 116 113 109 110 110 109 106
32 30 30 29 32 34 37 37 34 31 18 12 15 23 36 46 59 70 81 90 94 97 102 107 115 124 126 127 127 130 131 127 124 124 123 122 122 122 120 117 118 118 116 115
31 30 28 27 28 30 31 33 33 33 28 23 17 18 23 33 45 57 69 80 93 97 103 105 108 112 117 124 128 126 127 132 132 130 129 128 127 126 126 126 125 124 124 123
31 31 28 26 25 27 28 29 31 31 30 27 22 20 20 26 33 46 57 68 81 91 101 105 108 111 110 113 117 126 129 128 128 131 132 133 133 133 130 128 128 129 128 129
30 31 30 25 25 26 28 29 30 32 32 32 29 25 23 23 27 36 46 58 68 77 89 99 106 109 113 114 115 116 119 123 125 125 129 129 132 132 135 133 131 129 129 129
28 28 28 27 25 25 26 28 30 29 32 32 33 32 30 28 28 30 38 49 59 69 76 85 94 104 112 114 116 118 117 119 123 123 123 124 130 129 129 130 133 134 134 132
28 28 28 28 25 26 25 28 31 32 32 33 34 35 35 34 34 36 38 43 51 60 68 75 83 92 100 109 115 118 120 122 121 122 122 122 122 121 125 128 131 130 131 130
29 29 30 29 26 27 26 28 32 35 34 35 37 37 40 41 39 38 41 44 45 50 59 65 72 80 87 95 103 111 116 123 123 125 125 124 122 123 123 123 123 124 128 126
31 30 32 28 28 28 28 30 33 37 38 38 39 40 42 47 46 44 42 44 48 46 47 53 63 69 74 82 89 97 106 112 116 122 125 125 124 124 124 122 123 123 124 124
32 31 34 31 30 29 29 32 34 37 41 42 42 43 46 49 51 50 46 42 43 48 47 46 48 59 66 71 77 84 91 97 104 110 114 119 123 124 124 126 127 126 126 124
32 33 36 33 31 30 31 34 36 39 43 45 45 46 49 51 53 53 51 44 41 42 47 47 47 48 54 61 67 73 80 84 89 94 100 105 110 114 117 120 124 125 125 125
31 35 37 35 32 31 33 37 38 40 44 47 48 49 51 52 53 54 56 50 43 38 41 44 46 49 49 52 57 62 67 72 77 81 85 90 95 100 103 108 112 113 115 116
32 38 38 36 32 32 35 39 41 43 45 47 49 50 52 55 56 57 57 55 49 38 37 38 42 46 48 49 51 55 59 63 67 71 76 79 81 85 90 92 94 98 102 106
35 38 39 36 34 34 38 42 43 46 46 49 50 54 56 59 59 61 61 57 52 45 40 37 38 42 44 46 48 49 52 55 59 62 66 70 74 76 77 80 83 83 87 89
37 38 39 38 37 38 42 45 46 47 48 50 54 57 58 60 61 63 63 60 55 51 46 40 39 39 41 41 42 44 47 48 50 54 56 60 62 65 68 70 73 77 78 79
39 39 40 39 40 42 44 48 49 48 49 52 57 58 59 61 62 66 66 63 56 51 49 44 40 40 37 39 38 38 40 42 42 44 46 48 51 54 56 58 62 66 69 71
41 43 43 43 43 44 47 50 51 50 52 56 60 60 62 64 66 68 68 65 58 51 48 46 43 39 36 36 35 35 35 36 36 37 38 40 43 45 49 51 53 56 58 60
45 45 47 47 47 47 50 53 53 54 58 61 62 63 65 67 70 71 70 66 61 55 50 46 45 40 35 34 32 32 32 33 33 35 35 36 38 42 43 45 47 48 49 50
48 48 49 49 50 52 54 56 56 59 61 62 64 66 67 69 71 72 71 66 58 55 51 47 44 41 36 32 31 30 31 30 31 31 31 32 34 36 37 38 39 40 41 39
51 51 52 53 54 56 57 58 59 61 62 64 65 67 69 70 71 72 70 66 55 52 49 47 43 39 36 31 30 29 29 28 29 29 28 30 32 33 35 36 36 35 35 35
54 55 55 56 57 59 60 61 61 63 65 66 66 69 70 71 72 72 70 65 57 51 47 43 40 36 35 31 29 27 27 26 27 26 26 28 30 31 33 34 31 29 31 32
56 57 58 59 60 62 63 62 63 66 67 67 68 70 71 74 74 71 67 61 55 48 46 42 37 35 33 30 28 26 25 25 25 25 25 27 27 30 33 31 28 28 27 25
61 61 62 63 63 64 64 65 66 68 70 70 71 72 73 76 74 71 67 59 54 48 44 41 36 34 31 28 26 23 22 23 24 24 25 25 26 27 29 27 23 22 22 21
64 64 65 65 65 65 67 68 69 71 72 72 73 71 73 75 74 69 62 54 50 46 43 40 35 32 29 26 24 22 20 22 23 22 23 23 23 24 24 24 21 17 15 14
67 67 68 68 68 69 71 71 73 74 75 75 74 73 73 72 70 65 58 53 49 44 42 38 33 30 27 25 23 21 19 20 21 21 21 19 19 21 21 22 20 17 14 12
70 71 71 71 72 73 74 75 76 77 78 78 75 74 73 71 67 59 55 50 48 43 40 36 31 28 25 24 22 20 19 19 20 20 20 17 18 18 18 19 18 17 15 13
71 71 72 74 74 75 77 78 78 78 77 75 76 75 72 68 63 59 55 51 48 43 39 35 30 27 25 23 21 20 19 19 19 19 19 17 17 16 16 13 13 13 12 10
Wind_Direction
316 320 324 330 333 336 341 351 0 353 324 283 267 244 233 229 228 226 228 230 230 231 231 234 233 236 238 239 240 240 240 241 241 242 242 243 243 245 248 248 250 252 251 250
310 317 318 325 329 330 334 340 346 349 346 317 285 263 257 240 231 231 230 229 229 231 235 236 236 237 238 241 240 241 242 242 243 244 244 244 244 245 245 248 249 251 253 254
304 315 313 316 321 323 326 332 336 342 343 339 322 285 264 254 251 239 235 235 234 232 233 234 239 241 241 241 244 245 244 244 245 247 247 247 248 248 248 247 247 248 250 252
298 310 311 308 313 314 319 327 330 332 334 334 329 315 295 273 259 251 249 240 237 237 238 237 236 239 241 242 243 245 247 248 248 249 249 249 250 250 250 250 250 250 250 251
293 308 307 305 305 309 313 321 326 328 331 330 324 318 307 290 272 260 255 251 249 243 238 239 240 240 240 241 242 242 243 247 249 249 250 251 252 252 252 252 252 253 253 254
289 305 305 303 298 302 306 315 320 321 322 324 323 317 311 302 287 271 261 256 252 251 249 244 241 241 242 242 243 244 244 244 246 249 249 249 250 251 252 253 255 256 255 255
287 304 303 300 293 294 298 309 315 315 317 318 318 317 318 313 305 293 282 262 255 255 251 249 247 244 243 244 243 244 246 247 247 248 250 251 253 252 252 253 254 255 257 257
285 302 300 298 293 290 292 301 309 310 311 314 316 320 320 319 316 313 305 289 272 260 256 255 251 249 247 245 245 246 245 246 249 249 250 252 251 253 254 256 256 256 258 258
283 299 298 296 292 293 293 300 306 309 314 319 321 323 322 319 318 316 313 306 291 280 268 257 254 254 251 249 248 247 248 249 248 249 251 253 254 254 256 256 256 257 259 260
282 297 294 292 289 293 293 301 307 312 315 319 322 321 322 318 318 317 318 313 297 286 281 274 261 254 254 252 251 250 249 249 250 252 251 252 254 256 256 257 257 258 259 260
281 294 292 290 288 292 294 305 309 314 315 318 322 320 320 321 320 319 319 319 309 293 283 280 275 266 258 255 254 253 253 253 252 252 252 254 254 254 256 257 258 260 261 262
283 290 290 288 287 291 295 304 308 311 313 317 321 321 322 323 321 320 320 323 318 301 290 285 279 274 269 263 258 256 255 255 255 255 254 255 256 256 256 257 260 261 263 264
282 288 284 285 286 289 296 302 306 310 314 318 321 322 324 326 323 323 324 324 323 313 301 291 285 280 276 270 264 260 258 256 254 254 254 255 255 256 257 258 258 259 258 259
282 285 283 284 286 291 295 300 305 310 315 319 320 324 326 328 325 325 325 326 327 320 311 300 294 287 281 278 272 267 262 258 255 254 254 254 254 255 255 257 259 257 258 260
279 280 281 283 286 290 295 300 305 310 316 318 321 324 327 328 326 326 326 326 328 323 315 308 302 293 286 279 273 269 267 264 262 259 257 255 255 256 256 256 257 259 259 258
276 277 279 282 285 290 296 301 305 311 316 317 320 324 327 327 327 327 326 326 327 323 318 311 306 299 290 282 276 270 265 262 261 261 260 259 258 258 256 255 255 256 258 259
273 275 278 283 287 293 298 300 306 313 314 316 319 323 325 327 327 326 326 326 325 323 318 313 309 303 296 286 279 274 269 264 262 262 261 261 261 260 260 260 261 261 262 263
270 274 278 284 289 294 297 300 306 312 314 315 318 323 325 326 327 326 325 325 325 321 318 313 311 307 301 291 284 279 273 270 265 264 265 267 266 264 263 264 265 266 267 268
271 275 280 285 290 293 296 300 306 310 312 315 319 322 323 325 326 324 324 323 324 321 316 313 312 307 302 292 286 281 278 275 273 273 273 273 272 272 271 269 269 268 269 271
270 275 280 284 289 292 295 300 305 308 311 315 319 321 322 324 322 322 322 321 323 319 315 312 308 304 302 294 287 283 280 277 277 277 278 278 277 275 276 277 277 279 280 275
269 274 279 283 287 291 296 301 304 307 311 315 318 319 320 321 321 321 321 322 322 317 314 310 306 303 299 293 287 284 280 278 279 279 279 276 277 280 281 283 288 284 278 276
270 275 279 283 287 291 295 299 303 306 310 314 316 317 320 319 319 319 319 320 317 315 314 311 307 304 298 292 287 284 280 280 281 281 280 278 282 282 285 290 292 291 289 284
271 275 279 282 286 291 295 299 301 306 310 314 315 316 317 316 316 317 317 318 317 317 313 310 307 303 296 291 287 282 278 279 281 280 280 279 281 285 291 297 302 300 293 289
271 275 278 281 286 289 293 296 301 304 308 312 313 314 314 314 314 315 315 316 315 316 314 310 305 299 293 288 282 276 275 276 277 276 275 275 279 283 295 302 310 310 296 291
271 274 277 281 285 288 291 296 299 302 306 310 312 312 311 311 310 310 313 315 315 315 313 307 301 295 289 285 279 272 273 271 272 270 270 271 277 287 298 305 314 316 318 315
272 274 278 281 284 287 292 295 299 302 306 308 309 309 308 307 307 311 313 315 316 314 310 303 298 291 286 281 274 268 268 268 267 267 265 264 268 283 292 303 310 315 322 327
272 276 278 281 285 288 292 295 299 302 304 306 307 306 305 306 309 312 314 316 315 312 306 299 294 287 282 275 267 261 261 262 260 259 256 249 257 272 287 296 306 311 311 315
Height
10431 10427 10421 10415 10410 10404 10397 10392 10388 10385 10381 10379 10375 10378 10383 10390 10396 10403 10413 10423 10434 10437 10443 10447 10449 10455 10464 10474 10484 10494 10504 10513 10522 10532 10540 10548 10555 10561 10567 10575 10580 10586 10593 10600
10425 10421 10418 10413 10407 10402 10397 10391 10387 10383 10380 10378 10375 10373 10372 10376 10383 10389 10395 10400 10408 10418 10427 10429 10432 10437 10444 10450 10460 10470 10479 10487 10496 10505 10514 10521 10529 10537 10546 10550 10555 10559 10565 10569
10419 10416 10413 10409 10405 10401 10396 10391 10386 10381 10377 10375 10371 10368 10368 10369 10370 10374 10378 10383 10388 10395 10399 10409 10414 10417 10426 10434 10435 10443 10453 10459 10468 10478 10487 10493 10501 10509 10517 10525 10530 10536 10541 10545
10412 10409 10407 10404 10401 10397 10393 10388 10384 10381 10377 10373 10370 10366 10362 10360 10360 10361 10361 10365 10368 10373 10378 10384 10388 10393 10401 10408 10415 10419 10424 10432 10441 10447 10454 10463 10470 10477 10485 10493 10501 10508 10515 10519
10406 10403 10399 10397 10393 10390 10386 10383 10379 10374 10370 10367 10364 10362 10359 10355 10352 10349 10348 10347 10347 10350 10355 10360 10367 10372 10373 10378 10384 10390 10397 10401 10406 10416 10422 10431 10436 10444 10452 10460 10468 10476 10484 10491
10399 10398 10393 10389 10386 10383 10380 10377 10373 10369 10365 10361 10356 10352 10349 10345 10342 10340 10336 10333 10331 10330 10332 10336 10341 10346 10347 10354 10358 10360 10367 10374 10378 10383 10391 10400 10402 10411 10419 10426 10432 10441 10452 10461
10390 10390 10386 10382 10379 10376 10373 10371 10367 10363 10359 10354 10350 10344 10338 10333 10329 10325 10320 10318 10315 10312 10312 10314 10316 10319 10323 10327 10331 10337 10341 10343 10351 10357 10362 10367 10373 10382 10388 10395 10400 10407 10414 10423
10382 10382 10378 10374 10371 10369 10367 10364 10361 10356 10352 10347 10342 10336 10329 10323 10317 10311 10305 10299 10298 10296 10293 10292 10294 10295 10298 10303 10306 10308 10315 10318 10322 10328 10334 10338 10346 10350 10357 10362 10369 10377 10380 10392
10375 10374 10369 10367 10364 10361 10358 10355 10352 10347 10342 10337 10331 10325 10319 10312 10306 10300 10294 10284 10277 10275 10274 10275 10274 10273 10274 10277 10279 10283 10286 10290 10296 10301 10304 10310 10318 10324 10328 10334 10340 10345 10350 10356
10366 10366 10360 10358 10355 10352 10350 10346 10342 10338 10332 10327 10321 10315 10309 10301 10294 10287 10281 10273 10264 10257 10255 10254 10254 10253 10253 10254 10255 10256 10260 10264 10268 10273 10278 10282 10287 10292 10296 10301 10307 10313 10320 10328
10356 10356 10351 10349 10346 10344 10341 10338 10333 10328 10323 10317 10312 10306 10299 10291 10283 10274 10267 10260 10252 10244 10239 10236 10234 10234 10233 10234 10234 10235 10237 10240 10244 10248 10252 10256 10260 10264 10270 10274 10279 10282 10287 10293
10349 10346 10343 10340 10338 10336 10332 10329 10325 10320 10315 10309 10302 10295 10288 10281 10272 10263 10253 10246 10239 10231 10225 10219 10216 10215 10215 10215 10215 10215 10217 10219 10221 10224 10227 10230 10234 10239 10244 10248 10251 10256 10261 10265
10339 10336 10334 10331 10330 10328 10324 10320 10316 10312 10307 10301 10293 10286 10278 10270 10260 10250 10241 10232 10224 10218 10212 10207 10201 10197 10195 10196 10196 10197 10197 10199 10201 10202 10204 10207 10210 10213 10215 10217 10226 10228 10231 10235
10328 10326 10324 10322 10321 10319 10316 10311 10307 10302 10297 10290 10283 10275 10267 10257 10247 10237 10228 10219 10211 10203 10198 10193 10189 10184 10180 10177 10177 10177 10177 10179 10180 10182 10184 10185 10187 10189 10194 10195 10196 10202 10204 10206
10317 10316 10313 10313 10312 10309 10305 10301 10298 10293 10287 10280 10272 10264 10256 10247 10236 10226 10216 10207 10199 10190 10184 10180 10175 10171 10167 10163 10162 10161 10160 10161 10162 10163 10165 10166 10168 10170 10172 10175 10175 10175 10178 10183
10307 10305 10304 10303 10302 10299 10295 10291 10287 10283 10277 10270 10262 10254 10246 10236 10226 10215 10205 10196 10189 10181 10172 10166 10163 10157 10154 10150 10148 10148 10147 10147 10147 10148 10149 10150 10150 10151 10153 10155 10155 10156 10156 10159
10296 10294 10294 10292 10290 10288 10283 10278 10275 10272 10266 10258 10251 10243 10234 10223 10213 10202 10192 10184 10176 10170 10162 10155 10149 10145 10141 10137 10136 10135 10135 10135 10135 10135 10135 10137 10137 10137 10137 10137 10138 10138 10138 10139
10285 10284 10282 10281 10278 10275 10271 10266 10263 10259 10253 10246 10238 10230 10220 10212 10201 10190 10181 10172 10163 10155 10150 10144 10137 10133 10130 10125 10124 10122 10122 10122 10122 10121 10122 10122 10122 10122 10123 10123 10122 10122 10121 10121
10273 10272 10271 10269 10266 10262 10258 10255 10252 10247 10241 10233 10226 10217 10209 10200 10191 10181 10170 10162 10155 10145 10137 10132 10127 10121 10118 10115 10113 10112 10111 10111 10110 10110 10110 10110 10109 10108 10108 10107 10106 10105 10105 10106
10260 10260 10258 10256 10253 10250 10246 10243 10239 10234 10227 10221 10214 10205 10196 10189 10181 10170 10161 10151 10146 10137 10129 10121 10116 10111 10107 10105 10103 10101 10101 10100 10099 10099 10099 10098 10097 10096 10095 10094 10093 10093 10092 10090
10248 10248 10246 10243 10240 10237 10233 10230 10226 10220 10214 10209 10201 10193 10184 10175 10167 10158 10149 10140 10133 10126 10119 10112 10106 10101 10097 10096 10094 10092 10092 10091 10090 10090 10090 10089 10087 10086 10084 10083 10083 10082 10079 10077
10236 10234 10232 10229 10226 10224 10220 10217 10212 10206 10201 10195 10189 10181 10172 10162 10155 10146 10137 10131 10123 10116 10108 10101 10095 10091 10088 10086 10085 10084 10083 10082 10081 10081 10080 10080 10079 10077 10075 10074 10073 10070 10068 10066
10221 10220 10218 10215 10213 10210 10207 10203 10198 10192 10187 10182 10175 10167 10159 10149 10140 10134 10125 10117 10110 10103 10097 10090 10086 10082 10079 10077 10076 10076 10075 10074 10074 10073 10073 10074 10072 10070 10068 10067 10065 10063 10060 10058
10206 10205 10203 10202 10200 10197 10193 10189 10185 10179 10173 10168 10162 10155 10146 10137 10124 10119 10113 10107 10099 10092 10085 10080 10076 10073 10071 10070 10069 10068 10068 10067 10067 10067 10068 10068 10067 10065 10063 10061 10060 10057 10054 10052
10191 10190 10189 10188 10186 10182 10178 10175 10171 10165 10159 10152 10145 10138 10130 10123 10116 10108 10101 10095 10088 10081 10074 10070 10068 10065 10063 10062 10061 10061 10061 10061 10061 10062 10063 10063 10061 10060 10058 10056 10054 10052 10051 10048
10176 10175 10174 10172 10169 10166 10162 10159 10154 10147 10141 10134 10129 10122 10113 10107 10099 10093 10087 10081 10075 10069 10064 10061 10058 10056 10055 10054 10054 10054 10055 10055 10056 10057 10059 10058 10057 10056 10055 10054 10052 10049 10048 10046
10160 10159 10158 10155 10153 10150 10147 10142 10137 10132 10126 10120 10110 10103 10097 10090 10084 10077 10071 10066 10062 10058 10053 10050 10049 10047 10046 10046 10046 10047 10048 10049 10050 10052 10053 10053 10053 10053 10052 10052 10050 10048 10047 10046